User: anonymous   Login
Location: Unspecified
(0.0000°N, 0.0000°E)
Time: 02:08:40
(UTC+00:00)
Language:

STARLINK-31048 - Orbit

View from above orbital plane
View from above orbital plane
View from above satellite
View from above satellite

Ground track
Ground track

The orbit is defined by the following mean orbital elements,

1 58544U          26145.07362319 +.00000000 +00000-0 +10973-4 0 00002
2 58544  53.1607  67.6505 0001154  84.3506 275.7627 15.30195128    07
Epoch (UTC): 25 May 2026 01:46:01
Eccentricity: 0.0001154
inclination: 53.1607°
perigee height: 474 km
apogee height: 476 km
right ascension of ascending node: 67.6505°
argument of perigee: 84.3506°
revolutions per day: 15.30195128
mean anomaly at epoch: 275.7627°

The dashed part of the orbit path shows where the satellite is in the earth's shadow,  

DLR